Wind_Speed
11 9 8 7 6 5 4 4 4 3 3 3 3 4 4 4 3 7 13 4 7 13 7 3 5 4 0 1 1 1 1 1 2 2 2 1 0 2 2 1 0 1 1 0 1 0 1 2 1 0 2 1 1 2 3 3 3 1 1 2 2 1 3 2 5 5 6 9 3 5 4 6 7 5 5 3 2 1 4 4 2 3 4 2 2 7 7
7 6 6 5 6 7 8 9 8 8 8 7 6 6 4 3 3 6 16 7 3 6 5 2 3 2 0 2 3 3 1 1 2 2 2 2 1 2 1 0 1 0 1 1 1 1 0 1 1 1 1 1 1 1 3 4 2 3 1 1 2 2 1 2 4 7 8 8 6 4 2 3 4 3 3 3 3 2 1 1 3 2 3 6 5 8 9
7 6 6 7 8 8 7 6 5 6 5 3 5 6 4 4 2 3 16 20 11 4 4 6 5 3 2 4 4 4 2 1 1 0 1 1 2 1 1 0 1 1 1 1 1 2 2 1 2 2 0 2 1 2 4 3 2 2 2 2 2 1 0 3 4 5 7 7 7 8 7 5 1 3 4 4 5 6 3 2 2 2 7 10 6 8 13
9 8 8 8 7 6 5 5 5 6 5 3 6 7 4 4 4 2 9 15 11 4 1 4 6 4 4 4 3 2 2 1 1 2 1 1 1 1 2 1 2 2 3 3 3 2 2 1 2 2 2 3 1 2 3 2 2 1 2 2 2 2 0 2 4 3 6 6 9 9 6 6 5 3 6 4 3 5 3 1 2 5 9 10 7 11 18
11 10 8 7 6 5 4 3 3 4 6 6 8 9 5 3 3 1 1 4 5 5 5 5 4 3 4 3 1 2 2 3 1 1 0 0 1 1 2 2 3 3 4 4 3 4 4 3 2 1 2 3 3 2 0 2 3 2 1 1 3 4 2 2 4 6 8 7 11 12 6 4 5 3 5 4 2 4 4 2 5 8 8 8 12 17 21
9 7 6 6 5 5 3 2 1 2 3 4 5 6 5 3 3 1 1 2 2 3 3 4 5 5 4 3 1 2 3 3 1 1 2 1 1 1 2 5 4 1 1 2 3 6 6 4 3 2 2 3 4 4 1 1 3 2 2 3 3 4 2 2 3 6 9 9 12 10 4 1 1 2 4 5 4 5 4 4 8 8 7 12 18 22 23
7 6 6 5 5 5 8 8 7 7 5 4 7 7 3 3 4 0 2 4 3 1 2 3 5 7 5 3 2 2 3 2 0 2 3 4 3 2 2 5 5 1 1 2 2 3 3 4 4 1 2 4 3 3 1 1 2 2 3 3 1 3 2 3 2 6 10 9 8 5 3 3 2 3 4 4 4 4 4 6 9 10 12 16 20 24 24
11 10 9 8 7 6 7 8 9 10 8 7 9 7 1 3 4 2 3 5 2 1 3 3 4 5 4 3 2 1 2 1 1 0 1 2 4 4 3 6 5 1 3 3 1 2 3 3 5 2 2 4 1 1 0 1 4 5 3 2 2 2 3 1 2 5 9 5 2 3 2 4 3 2 5 7 8 7 7 7 8 11 15 18 21 23 20
17 16 15 13 12 10 9 9 9 8 9 9 8 6 4 5 6 7 7 4 4 3 3 3 4 4 3 2 1 1 2 1 0 0 1 1 1 2 2 4 4 2 2 1 3 5 5 6 8 6 2 3 3 1 1 1 3 6 3 3 4 4 4 3 4 5 9 6 8 10 5 4 4 3 6 9 11 12 10 7 8 12 17 22 23 18 13
22 21 20 19 17 15 13 12 11 11 11 12 8 4 6 8 6 5 7 4 3 2 2 3 4 2 1 1 1 0 0 1 0 1 0 0 1 2 2 0 2 3 5 4 3 3 5 5 5 3 3 1 1 1 1 3 2 1 2 2 3 3 3 4 3 4 8 9 13 14 6 4 3 3 2 7 13 16 14 10 10 14 14 16 17 13 13
25 24 23 22 20 19 16 14 11 10 9 11 11 10 8 7 5 3 7 5 2 2 2 3 3 2 1 1 1 1 1 1 1 2 1 1 1 1 3 3 3 2 3 1 2 3 3 3 2 2 3 5 5 3 3 4 3 1 2 2 1 3 3 2 1 2 6 10 14 14 8 6 5 1 3 7 13 16 18 16 13 15 14 13 13 13 18
27 26 25 24 23 21 20 17 14 13 12 12 16 15 10 7 7 5 6 6 1 3 3 1 0 1 1 1 1 2 2 1 1 1 0 1 1 1 3 4 3 2 2 2 4 6 5 5 4 4 6 6 5 5 6 6 4 3 3 3 2 3 3 2 1 0 4 5 10 12 10 6 4 1 1 7 11 13 21 22 16 17 19 16 14 17 21
27 27 25 25 24 23 22 20 17 15 13 10 14 17 12 9 9 5 6 7 1 2 3 2 0 1 1 1 2 1 2 2 1 1 1 1 2 2 0 3 1 2 2 0 3 5 3 2 3 3 3 4 4 4 6 7 6 5 4 3 3 2 2 1 0 0 3 5 6 7 9 6 3 2 2 6 11 14 18 21 19 18 15 12 16 21 21
26 26 25 25 24 23 22 20 18 15 11 8 13 17 13 8 7 4 5 7 2 3 2 3 1 1 2 1 2 3 2 2 2 1 1 0 2 4 4 3 3 3 4 1 3 3 1 3 5 4 4 5 5 3 2 5 6 6 5 3 3 3 2 2 2 1 2 5 5 5 9 6 3 4 4 6 11 13 13 17 20 14 8 10 17 21 21
24 24 24 24 23 23 22 20 18 15 12 10 12 15 12 8 6 6 7 7 4 0 1 1 1 2 3 2 2 3 4 4 3 2 2 1 2 5 4 2 3 4 3 2 3 3 3 3 3 4 4 4 3 4 3 2 3 4 4 3 4 4 3 3 3 2 1 3 6 5 8 7 1 2 7 8 10 13 12 14 14 8 8 14 18 21 24
23 24 24 23 23 22 21 20 18 15 13 11 13 17 17 13 11 13 11 8 6 3 1 1 3 4 4 2 1 3 3 2 2 3 5 4 3 4 3 2 2 1 3 4 3 3 4 3 3 1 1 1 2 3 3 2 2 2 3 5 7 6 4 5 4 3 2 3 6 5 6 5 1 2 9 13 13 13 12 11 9 9 14 18 18 20 25
24 23 24 24 22 21 20 18 17 16 13 11 12 15 17 13 10 13 12 7 5 4 1 1 2 3 4 3 2 2 2 1 1 1 2 3 3 5 5 3 2 0 4 5 3 4 5 3 2 2 2 2 1 2 3 3 4 4 3 5 7 6 5 5 5 3 4 5 5 3 3 4 3 4 11 15 14 13 11 10 9 13 19 19 17 21 25
24 24 24 24 23 22 21 18 15 15 13 13 14 17 18 13 8 9 10 7 5 4 2 3 3 2 1 2 1 1 1 1 1 1 2 3 1 3 4 3 3 2 3 4 3 3 4 2 2 2 2 3 0 1 2 2 3 4 4 3 3 3 2 3 3 4 6 6 6 5 4 5 6 10 13 14 14 12 10 10 11 15 20 19 19 23 26
24 24 24 24 25 24 23 21 17 14 11 9 10 14 17 14 10 13 13 8 4 3 1 3 2 2 1 2 2 1 1 1 1 2 2 3 1 1 2 2 1 2 2 4 3 3 3 1 1 3 1 3 2 1 1 1 1 2 4 3 3 3 2 2 2 4 4 4 5 8 5 2 7 16 16 12 12 11 9 11 13 14 18 20 22 24 24
24 25 24 24 25 24 23 23 20 16 14 11 9 15 18 12 7 8 12 11 6 4 2 3 3 4 2 1 3 2 1 2 2 3 3 2 2 3 4 3 2 2 3 3 2 1 2 1 2 1 2 3 2 1 1 1 1 1 2 1 1 2 3 3 3 2 4 5 5 6 6 5 13 18 13 8 9 10 11 13 13 12 16 21 23 22 22
23 24 24 24 24 24 23 23 20 17 16 13 12 19 24 21 15 13 20 26 16 4 1 3 5 7 7 6 5 3 2 2 1 2 3 3 2 4 3 3 2 0 1 2 2 0 1 3 2 1 1 2 1 1 0 1 2 2 1 2 2 0 1 1 3 1 2 4 4 4 9 11 12 12 9 9 10 10 11 13 13 13 15 17 18 20 23
22 23 23 23 23 23 23 23 20 18 17 13 14 22 27 28 28 25 27 32 25 10 8 10 10 11 12 10 9 7 3 2 2 2 3 1 2 2 3 3 2 2 2 2 2 0 1 2 2 1 1 0 1 1 1 2 1 3 3 3 1 2 4 3 3 2 2 4 8 9 11 11 10 9 11 14 13 11 12 14 15 15 14 13 15 21 26
22 22 22 22 22 22 22 22 21 20 17 13 14 23 27 26 27 26 27 30 24 13 11 11 8 8 9 9 9 10 7 3 2 2 2 2 1 1 1 2 2 2 1 2 2 2 3 3 2 2 2 1 1 2 3 2 0 2 1 1 2 4 3 3 2 4 5 7 9 9 10 11 13 13 13 14 13 11 12 13 13 14 13 13 15 20 24
23 23 22 22 21 21 21 21 21 21 20 16 17 25 31 27 25 25 24 19 11 6 5 5 4 4 5 6 7 9 9 7 2 2 2 2 2 0 2 2 2 1 1 3 3 3 3 2 2 3 2 1 2 3 2 1 1 1 1 1 3 3 2 1 1 4 7 7 8 10 12 13 15 15 12 13 13 11 11 12 13 14 15 15 16 18 21
23 23 23 22 21 20 20 19 18 18 18 18 17 21 23 19 15 15 14 9 5 5 5 3 4 3 3 5 6 7 8 8 5 1 1 2 2 1 1 3 3 2 2 3 3 4 4 2 2 3 2 1 1 1 1 1 2 2 2 1 3 2 1 2 4 5 7 10 14 17 15 13 12 12 11 11 13 14 15 16 18 20 21 22 22 22 21
21 21 21 21 21 20 19 19 18 16 14 12 12 14 17 18 15 14 17 15 10 6 5 1 2 2 1 4 6 6 6 7 7 4 2 1 1 2 4 5 4 3 3 4 4 3 4 3 3 3 2 1 1 2 2 2 2 2 2 1 3 2 1 3 7 7 7 10 14 19 20 16 14 16 16 15 15 17 19 20 21 22 21 22 26 30 30
20 18 17 17 17 18 19 19 19 19 17 15 14 15 16 16 13 11 12 10 5 3 3 2 2 2 2 4 7 9 7 6 6 6 4 3 2 2 5 6 5 4 4 4 3 3 4 4 3 2 2 1 2 3 2 1 3 3 1 1 2 3 5 5 7 7 7 9 13 16 16 15 15 18 19 18 18 19 19 20 20 20 20 22 25 31 35
19 18 17 14 12 12 13 15 19 22 23 22 22 22 21 19 15 9 4 1 2 4 4 3 2 1 2 2 8 11 9 6 6 6 6 5 5 4 4 5 4 3 3 3 2 2 4 3 2 2 2 1 2 2 1 2 3 2 2 2 3 4 6 7 7 7 10 13 13 11 11 12 15 17 17 18 21 19 17 20 21 20 22 25 25 25 27
19 19 18 17 14 10 7 7 9 13 17 18 19 22 23 22 20 18 13 11 15 14 7 2 3 2 1 1 6 10 8 7 7 7 8 9 9 8 7 6 5 4 3 3 3 3 3 2 2 1 0 1 3 2 2 2 3 1 2 1 3 4 4 6 8 10 12 14 12 11 11 13 17 18 16 18 22 18 14 17 20 21 26 29 26 24 25
19 19 19 18 17 15 10 4 5 6 7 8 7 10 12 12 14 16 15 14 15 12 6 3 3 1 1 1 4 10 9 6 7 8 10 11 10 9 9 7 5 4 3 2 3 3 1 1 1 1 2 2 3 3 2 2 1 2 3 3 5 5 5 6 7 9 11 13 13 13 13 13 17 19 19 21 26 24 19 19 24 27 31 32 27 26 28
16 17 18 18 19 18 17 12 5 6 7 3 1 3 3 3 6 10 10 8 8 8 6 4 2 1 2 0 3 9 9 4 4 5 7 8 9 8 7 5 4 4 3 2 1 2 2 1 2 2 3 4 4 4 3 3 0 3 4 4 5 6 6 7 7 9 12 14 13 14 14 14 15 17 18 22 29 29 24 25 31 33 34 34 32 29 28
14 14 15 17 18 20 21 20 14 9 9 11 12 10 6 1 4 7 8 7 6 6 6 4 1 1 2 1 2 8 8 4 4 5 5 5 6 5 6 6 4 4 4 3 2 2 1 1 2 1 2 3 4 3 3 4 1 4 5 4 5 6 6 7 8 11 13 14 12 12 14 14 13 14 18 24 29 29 25 27 33 34 32 33 33 31 30
12 12 13 14 16 17 19 20 19 18 21 24 23 20 16 9 5 5 6 7 7 6 5 4 3 1 1 1 1 8 9 4 3 5 4 4 5 4 3 5 4 3 5 3 1 1 1 1 2 2 2 2 3 3 3 3 1 4 5 5 6 6 6 7 9 10 11 13 12 10 11 15 17 19 23 26 27 27 27 29 30 29 27 25 23 25 31
8 10 12 13 14 15 16 17 18 19 22 22 21 21 23 20 14 9 4 4 6 8 6 4 3 1 3 1 1 7 10 4 2 3 3 3 5 3 1 3 3 3 3 3 2 1 2 1 2 2 1 2 3 3 1 1 3 4 5 6 7 6 6 7 6 6 9 14 15 14 16 20 22 21 20 20 21 25 29 30 28 23 19 16 17 23 30
5 6 8 8 10 12 13 13 15 17 17 16 14 15 19 22 23 20 11 5 4 3 3 4 4 1 3 4 2 5 9 5 1 1 1 2 4 4 2 1 3 2 2 2 2 2 2 1 2 2 1 2 3 1 2 4 5 5 6 7 8 8 8 8 8 7 11 16 19 20 21 21 20 16 12 12 17 22 25 26 26 23 17 15 20 27 30
3 3 4 5 5 6 6 7 9 10 9 8 8 9 11 13 17 20 19 17 14 7 2 2 3 2 2 2 3 6 9 5 1 2 2 1 3 3 3 3 2 0 1 2 2 1 2 1 1 1 1 1 1 3 4 3 5 7 7 8 8 7 7 10 11 11 14 17 18 18 18 18 16 14 12 13 18 23 22 21 22 21 18 17 21 26 28
4 3 2 2 2 4 4 6 7 6 5 5 5 7 7 6 6 10 14 16 17 12 7 4 2 0 0 1 3 6 7 4 2 4 3 1 2 2 2 3 1 1 2 3 1 0 2 2 2 2 1 2 3 4 4 3 4 6 6 6 7 7 7 10 13 13 15 18 18 16 17 19 18 16 15 16 18 19 18 17 18 19 19 18 19 22 27
5 4 3 2 2 3 3 3 3 4 4 5 4 4 5 6 5 5 6 7 8 9 7 5 1 1 1 1 2 4 5 2 2 3 2 1 1 2 1 2 1 0 1 2 2 1 2 3 3 2 2 2 0 2 4 3 3 5 5 6 8 10 11 13 14 12 12 14 16 15 16 18 19 18 16 17 18 18 17 19 23 24 23 22 23 25 28
4 3 4 4 3 1 0 1 2 2 3 5 5 3 4 6 5 3 3 3 3 4 4 3 1 0 2 2 3 4 4 3 2 3 2 1 1 2 1 1 0 1 2 1 2 1 2 2 2 1 2 3 2 2 4 3 3 6 9 10 11 13 14 15 15 13 11 12 15 16 15 16 17 16 14 14 17 19 21 24 26 27 27 27 28 27 26
4 4 4 3 2 2 2 2 2 1 2 4 5 3 3 4 3 1 1 3 3 2 2 2 0 1 1 2 2 2 3 3 1 1 1 1 1 0 1 0 0 1 1 2 2 1 1 0 1 1 2 3 3 3 4 3 4 8 12 13 14 15 16 16 17 17 16 16 18 19 19 19 20 20 18 16 15 17 20 23 26 29 30 29 29 29 28
4 3 3 3 3 4 4 4 3 3 2 3 4 3 2 2 2 1 2 3 2 2 1 3 2 3 2 1 1 2 2 3 1 2 1 2 1 1 1 1 1 1 1 3 2 2 3 1 1 1 3 4 3 3 4 4 4 7 11 14 15 15 16 16 17 18 18 17 19 20 21 23 25 26 25 23 20 20 22 25 28 33 34 31 29 32 33
6 6 6 5 5 4 3 4 5 4 2 2 2 2 1 1 2 2 2 1 0 1 1 1 1 2 3 2 2 2 2 3 2 2 1 1 1 1 1 1 2 1 2 3 1 3 2 1 2 3 4 4 4 4 4 4 4 7 12 16 16 16 16 17 18 20 20 19 19 20 22 24 26 27 27 26 25 25 28 29 31 34 37 36 34 34 35
7 6 5 4 3 4 4 3 4 3 2 2 2 2 2 2 2 1 2 2 0 0 1 2 2 2 2 1 1 2 2 2 2 1 1 1 1 2 2 2 1 0 1 1 3 3 0 3 3 4 4 3 4 4 4 4 6 9 12 16 17 17 17 18 18 20 22 21 20 21 22 23 25 28 30 30 28 28 31 35 35 35 38 40 38 36 37
3 2 2 2 2 4 3 2 2 2 2 2 1 1 1 3 2 0 1 2 1 0 1 1 1 2 2 1 1 0 1 1 2 1 0 1 1 2 1 1 2 1 1 2 2 0 2 3 4 4 3 3 4 4 4 5 6 7 10 14 16 16 17 18 18 19 21 22 22 24 25 25 26 29 32 33 31 29 31 35 36 36 38 41 40 40 41
1 2 3 3 3 2 1 1 2 2 2 1 1 3 2 1 2 3 2 1 1 0 1 0 2 0 3 2 1 1 1 1 2 1 1 1 2 1 1 2 1 2 2 1 1 2 3 3 3 3 3 4 4 4 4 6 8 8 8 11 15 16 17 18 18 19 20 22 24 25 25 25 26 28 30 33 33 31 30 32 33 35 37 38 38 40 43
3 2 3 2 1 2 1 1 1 1 1 2 3 4 3 3 4 4 2 1 2 1 1 1 2 1 1 2 1 1 1 1 1 0 1 2 0 2 2 1 1 2 2 1 2 3 4 4 3 3 4 5 5 4 4 7 11 11 8 8 12 16 18 18 19 20 21 22 25 26 25 25 27 27 28 31 34 33 32 32 33 34 35 34 35 39 43
3 2 3 2 0 2 1 1 1 1 1 2 3 3 2 1 2 2 2 2 2 2 2 1 1 0 1 1 1 1 1 1 1 1 0 1 1 2 1 1 0 1 1 2 4 4 4 3 3 3 4 4 4 4 5 7 10 11 9 10 13 16 17 18 18 20 21 24 26 26 26 27 29 29 29 31 33 33 32 33 35 35 34 34 38 42 44
2 1 2 1 1 0 0 1 1 1 1 0 1 2 1 1 2 3 3 4 3 3 2 1 0 1 1 1 1 1 1 1 0 1 1 1 0 2 3 2 2 2 2 4 5 4 3 3 4 4 4 4 4 4 5 6 8 9 10 11 14 16 17 18 19 20 23 24 24 25 27 29 29 30 30 31 33 34 33 34 35 35 33 35 40 44 44
5 3 2 2 2 1 1 2 3 1 2 1 1 1 1 1 3 4 4 4 3 2 2 2 2 1 1 1 1 1 1 1 0 1 2 2 0 1 0 0 2 3 3 4 4 3 3 4 4 4 5 5 4 5 6 7 9 10 10 12 15 17 17 18 19 21 23 24 24 25 28 29 29 29 30 30 32 35 36 34 32 31 32 34 37 39 41
6 4 2 2 2 1 1 2 3 2 4 4 3 2 2 3 3 4 6 6 2 1 2 2 2 1 0 1 2 1 1 1 1 1 1 1 2 1 1 2 3 4 4 4 3 3 4 4 3 4 6 6 5 7 8 9 10 10 11 13 16 17 18 19 20 21 23 24 25 26 28 28 27 28 29 29 31 35 37 35 31 30 33 36 36 35 37
4 3 1 1 1 2 3 3 3 2 3 4 4 4 4 3 3 5 8 7 3 3 2 0 0 2 2 2 1 0 1 0 1 1 2 3 2 3 2 4 5 4 4 4 3 4 4 4 4 4 5 5 6 9 11 12 12 12 13 14 15 16 18 20 21 21 22 25 27 27 28 29 30 30 31 32 32 32 33 35 35 35 36 37 36 35 35
2 2 1 1 1 2 4 3 2 2 3 3 3 4 3 2 3 6 9 6 4 2 1 1 2 3 1 1 1 0 1 1 1 1 3 3 2 3 5 5 5 3 3 4 5 4 4 5 7 7 7 7 9 12 13 13 13 13 13 14 15 15 17 19 20 21 23 25 27 28 29 30 31 32 33 32 30 27 27 32 38 41 41 39 36 34 34
Wind_Direction
123 116 105 100 95 95 100 101 102 112 139 143 98 78 59 74 111 350 356 32 103 69 62 340 23 72 140 13 90 9 74 99 339 354 17 6 35 36 47 100 74 175 206 271 208 243 218 217 357 241 236 323 6 331 340 318 304 33 50 320 328 38 68 16 293 285 284 289 335 75 98 105 91 49 32 54 71 116 203 222 325 315 283 319 304 280 289
128 118 106 97 95 98 98 94 93 97 108 109 89 95 101 108 148 12 15 24 140 86 96 127 64 94 167 41 15 338 76 92 13 359 1 7 86 56 27 210 24 47 154 127 216 306 345 251 351 46 186 249 101 69 339 326 351 44 38 323 345 336 23 39 349 337 331 330 353 15 354 44 79 70 54 73 55 357 262 62 20 305 289 335 312 276 291
133 126 117 112 111 112 105 97 102 103 106 103 87 114 127 70 92 332 19 39 64 98 143 138 126 142 103 60 11 350 32 71 39 110 18 31 151 109 1 287 48 46 79 34 327 336 20 316 344 29 279 263 79 54 345 334 38 45 340 322 335 299 218 96 64 350 325 324 322 315 325 345 42 96 50 30 37 33 28 17 347 293 311 316 290 270 296
131 126 122 121 118 114 108 99 99 87 78 96 91 93 113 71 56 324 3 30 51 71 97 95 108 141 117 71 3 24 56 332 265 143 83 42 151 73 356 333 35 37 38 24 326 315 18 20 1 24 312 285 316 359 336 12 60 20 341 351 62 95 272 150 144 231 266 260 272 292 334 333 305 0 22 2 21 41 52 85 296 304 302 292 277 292 305
121 119 117 120 110 103 113 108 98 87 78 88 81 61 57 91 82 68 6 9 33 41 21 37 75 133 124 97 8 18 4 319 320 125 175 165 122 55 39 41 37 18 22 27 319 308 357 23 6 6 279 277 293 301 243 68 15 344 326 349 79 81 325 258 181 230 250 256 275 294 335 323 290 355 11 343 1 44 58 36 312 305 296 288 300 310 311
111 109 107 113 102 77 64 65 167 139 87 75 81 53 26 76 130 182 114 71 49 42 25 46 68 62 78 112 100 28 15 5 9 297 317 16 38 32 39 29 35 36 6 31 346 332 353 0 340 342 317 315 340 353 50 70 338 346 358 345 92 111 273 239 188 252 266 272 279 289 314 270 194 40 353 345 10 17 14 336 306 302 292 292 303 310 310
97 98 97 100 101 77 65 73 93 100 93 84 91 82 35 82 112 333 24 90 137 154 12 58 70 56 59 83 67 73 72 40 278 268 349 1 357 41 38 352 2 31 187 88 45 346 351 335 314 323 359 342 358 5 348 304 328 42 36 344 110 131 266 235 189 282 285 278 276 280 251 199 138 42 345 347 359 355 342 313 305 302 289 290 302 308 308
90 90 90 87 93 90 72 79 91 91 93 94 82 76 72 138 139 133 62 74 83 27 20 50 66 44 42 68 60 117 131 52 314 238 66 7 347 26 27 328 338 57 140 110 51 255 197 250 266 219 21 334 274 164 261 280 336 19 46 320 336 22 321 284 80 327 299 285 322 332 254 185 141 28 353 351 348 350 347 325 317 311 301 304 312 311 309
86 83 83 80 78 80 76 82 90 91 101 102 79 65 84 102 124 135 110 67 0 9 19 50 79 36 13 80 134 228 161 155 310 263 159 132 9 17 3 320 331 50 91 86 279 250 203 222 243 219 221 267 226 179 163 160 347 359 22 346 358 22 343 342 46 352 307 321 359 342 335 119 107 5 356 359 353 345 338 336 334 325 318 319 319 315 314
83 80 79 76 74 74 74 78 87 95 105 102 89 101 114 97 95 110 103 76 352 5 8 22 78 69 342 147 169 271 254 250 72 85 283 141 172 194 167 100 357 9 1 351 312 245 211 224 254 228 198 208 102 79 110 109 58 349 52 26 10 46 359 336 18 339 309 333 345 329 330 63 22 312 9 10 354 337 328 337 338 326 323 322 318 316 320
82 80 78 76 74 72 70 73 82 93 104 107 115 141 154 132 118 86 79 77 356 355 45 31 59 100 209 163 134 109 76 19 43 96 30 340 8 144 129 98 36 335 301 336 80 104 117 102 74 75 75 62 57 60 79 75 65 121 112 74 21 51 31 332 9 309 301 328 338 330 338 8 342 255 112 13 354 337 325 328 332 327 325 320 313 318 324
81 78 77 75 73 72 70 71 75 81 93 107 120 133 150 139 119 90 86 101 337 350 68 71 23 167 198 130 104 141 130 103 133 152 283 314 351 54 108 101 45 334 241 161 113 111 101 86 92 83 59 54 56 57 64 57 26 20 84 117 111 51 14 327 61 218 277 321 353 347 344 350 333 220 178 340 347 340 324 320 328 332 327 323 325 325 322
80 78 76 73 71 70 69 70 70 75 84 97 108 119 136 129 103 85 96 108 102 313 94 99 311 124 123 98 87 115 213 242 278 221 236 285 309 312 261 147 150 305 292 133 112 123 122 19 44 76 44 36 45 46 58 54 26 11 35 80 102 79 30 343 12 238 311 347 10 341 312 311 342 322 285 328 345 346 331 321 327 334 328 329 331 321 315
78 76 74 71 70 68 67 68 68 71 80 87 96 108 123 119 100 109 114 102 112 252 122 84 20 64 94 82 56 36 323 310 351 342 219 160 264 266 261 217 226 292 312 346 49 65 72 19 25 13 345 6 16 354 22 55 41 22 13 27 87 102 95 25 349 41 30 330 314 289 291 307 18 3 350 357 343 344 340 320 318 327 332 333 327 316 315
76 75 73 70 68 65 65 66 66 70 74 74 87 103 108 96 99 122 121 110 116 177 31 80 179 147 95 50 26 35 6 353 9 342 325 346 252 251 252 245 268 308 345 53 56 41 58 72 50 11 349 5 357 306 304 34 39 29 23 48 73 58 61 72 16 13 90 305 309 319 317 323 21 308 328 351 340 338 336 312 303 320 336 330 326 321 321
73 73 71 69 66 64 63 63 64 68 72 74 88 98 92 82 91 103 101 101 107 93 349 259 157 126 101 62 21 68 55 2 354 345 341 341 306 282 273 267 275 329 52 62 66 63 60 75 116 100 328 261 247 292 314 350 346 5 43 60 61 41 37 85 72 10 19 352 330 323 309 304 206 276 327 344 341 334 326 300 294 327 333 331 331 325 321
71 71 70 68 65 61 60 61 64 67 68 72 86 91 86 83 91 96 89 81 90 90 333 293 107 86 75 60 12 45 95 73 55 53 334 315 305 302 306 315 316 80 85 62 33 57 66 59 85 72 288 236 174 303 309 341 335 326 352 25 44 38 6 28 46 15 357 342 314 279 257 277 293 331 341 341 334 330 328 315 315 331 331 331 330 322 318
68 68 68 67 64 60 58 56 58 65 68 71 79 82 80 78 80 90 94 90 92 89 352 348 75 72 70 132 169 207 150 73 39 118 291 309 296 291 308 336 348 337 73 79 48 61 74 52 65 90 256 258 72 348 314 349 333 315 322 342 21 40 359 14 30 349 339 335 312 296 267 257 299 333 345 342 332 333 338 324 318 327 326 322 320 318 317
66 65 64 63 61 58 56 53 49 51 54 55 67 71 68 70 81 89 90 81 69 91 13 341 47 92 211 189 176 194 146 97 90 113 47 341 283 219 323 338 13 343 32 78 82 90 89 28 224 133 195 290 325 61 48 38 317 320 340 355 25 21 341 340 350 330 328 323 310 308 285 236 341 340 343 354 347 334 325 314 312 319 317 313 315 317 317
66 65 62 61 60 57 55 53 48 48 50 52 73 76 67 62 63 74 96 109 103 84 51 1 44 97 90 109 136 153 114 68 77 122 126 252 264 65 35 335 318 359 20 55 66 96 119 174 251 164 175 257 272 114 54 352 56 21 350 11 56 2 328 322 315 311 316 316 323 320 299 326 354 345 341 359 349 316 303 308 309 309 310 313 316 316 316
67 65 61 59 59 57 55 53 48 47 52 56 78 80 69 64 67 84 112 118 112 97 98 83 90 97 83 75 96 120 141 127 125 152 163 230 291 80 109 224 237 80 83 101 98 161 176 170 201 237 189 238 285 76 64 7 32 18 26 114 125 140 89 311 288 290 357 326 310 288 289 310 340 342 324 318 312 299 300 308 309 312 315 317 317 315 315
66 65 61 58 58 55 55 55 51 52 57 59 75 85 81 80 87 96 104 99 89 91 128 119 99 85 72 59 56 53 68 159 187 184 158 185 330 68 129 165 166 176 183 129 111 209 193 153 162 140 111 348 1 33 70 77 27 317 3 68 124 208 169 182 251 247 191 230 248 266 283 300 319 319 307 304 302 302 309 309 309 314 316 317 318 316 316
65 63 60 57 57 54 53 56 54 55 60 59 73 92 98 97 97 100 100 94 88 94 113 113 100 75 50 34 37 40 40 66 168 197 156 114 58 29 84 147 157 182 179 137 156 180 163 155 148 124 128 170 86 63 39 45 75 277 1 61 239 237 190 166 239 280 271 243 246 273 295 307 312 310 305 304 305 309 310 306 306 309 311 314 318 317 318
63 62 59 56 57 54 53 56 56 60 68 71 82 99 105 103 99 101 100 95 95 99 90 78 72 51 10 3 22 27 28 42 80 183 168 137 134 21 293 221 168 139 243 214 182 127 115 146 131 96 97 196 132 101 57 33 154 162 84 320 285 271 235 195 261 314 317 304 292 302 310 309 307 305 300 299 304 309 311 312 311 312 314 316 316 316 319
60 60 58 56 57 56 56 58 61 68 78 84 92 104 106 99 98 106 105 98 103 113 96 43 9 359 335 358 18 15 14 22 29 58 154 194 192 155 182 184 160 150 186 177 131 86 74 100 121 101 110 176 159 101 113 151 165 151 105 350 308 299 241 272 308 312 297 289 295 306 309 302 299 306 311 314 319 322 323 322 320 317 318 320 321 323 325
59 59 60 60 60 60 61 63 66 71 80 89 94 99 98 92 91 102 106 103 97 90 93 75 325 341 51 36 20 11 11 15 18 37 78 173 190 150 155 151 123 104 105 92 87 95 99 99 101 104 117 124 102 125 143 141 138 115 94 230 263 293 342 307 307 302 280 283 307 321 323 321 322 326 327 327 328 326 324 323 322 320 321 323 326 327 327
58 59 61 64 67 69 70 73 75 76 79 83 85 90 94 94 95 106 110 104 84 61 96 147 258 290 109 71 26 17 22 23 24 39 68 104 122 155 171 152 118 83 68 58 52 78 86 74 76 118 149 137 79 107 135 125 105 95 38 307 293 336 342 321 315 319 313 314 325 329 324 320 322 325 325 325 326 325 323 323 323 322 322 324 325 326 326
55 55 55 58 66 78 84 87 86 84 82 80 79 82 81 75 70 71 68 49 122 123 127 157 179 155 136 64 15 13 22 32 38 55 70 76 86 114 149 143 117 76 65 76 78 72 67 72 101 137 165 144 88 74 34 36 64 58 334 339 7 351 334 328 324 314 306 308 315 319 311 302 305 314 319 320 321 322 320 318 318 316 318 320 321 322 324
50 49 48 48 51 60 87 113 108 96 89 84 80 77 73 64 57 59 66 86 106 108 100 95 107 91 83 23 7 9 24 47 57 69 74 72 80 89 88 86 88 86 94 102 98 89 80 95 143 168 310 132 132 92 44 59 54 9 261 297 347 326 299 301 300 295 297 302 306 310 305 297 301 310 312 312 316 318 314 312 314 315 317 319 318 319 322
47 45 44 42 42 44 53 93 155 153 126 105 82 68 63 52 47 57 73 92 104 105 99 103 108 38 309 148 14 9 24 63 79 70 62 62 67 67 63 64 66 62 69 76 82 104 113 9 14 319 333 44 115 116 102 118 124 284 267 293 322 312 288 284 282 283 292 298 301 305 301 294 300 308 310 314 320 322 317 314 316 317 318 319 319 318 319
48 47 45 45 46 46 45 50 82 180 190 183 64 58 72 39 21 39 59 80 93 96 97 99 95 356 342 48 15 13 17 40 69 55 47 49 51 49 52 58 46 36 53 75 72 93 120 48 38 6 345 34 83 118 131 118 64 294 283 289 304 299 290 286 278 275 282 290 298 303 301 301 309 314 316 319 321 320 318 316 317 318 319 320 319 316 316
51 50 50 52 56 58 59 61 70 99 113 94 83 83 94 100 352 25 51 70 82 93 93 85 78 1 337 293 349 9 8 11 39 38 32 33 32 30 39 48 45 45 62 86 90 60 79 119 86 36 351 33 67 100 107 93 35 290 289 300 301 291 283 287 292 288 287 294 305 309 307 307 312 313 311 313 315 316 316 314 315 317 319 318 317 318 320
57 58 58 60 62 66 71 72 74 82 86 83 80 75 68 58 27 26 52 64 63 69 78 89 106 83 318 233 7 9 6 1 20 25 26 22 12 5 19 30 34 38 40 55 117 100 46 119 100 50 350 23 72 93 94 78 314 286 297 305 299 288 277 280 286 285 289 299 305 303 299 302 305 307 307 308 313 318 318 315 314 317 319 319 319 323 327
66 68 68 69 69 70 74 75 78 83 82 77 69 62 58 55 48 41 52 82 69 61 57 69 112 249 331 358 69 13 15 22 5 4 7 358 5 22 24 357 14 46 33 29 90 82 12 46 96 79 341 352 46 81 95 305 288 285 298 302 299 298 292 284 277 276 295 307 308 303 302 303 305 309 309 307 313 321 323 322 322 323 324 326 327 328 329
67 75 77 79 75 74 77 77 78 79 76 69 63 57 56 56 53 50 53 67 64 54 29 40 77 97 4 5 311 339 9 32 61 326 312 317 1 42 99 358 17 51 18 7 74 78 20 32 101 106 336 4 38 90 239 285 296 301 312 313 314 320 320 316 315 314 315 318 316 313 312 311 309 311 313 313 321 329 330 328 329 330 330 330 331 330 329
50 71 88 94 84 80 76 62 58 63 64 59 54 49 52 58 56 54 59 62 61 72 132 57 58 88 38 355 282 323 1 18 320 316 324 306 353 22 70 72 55 57 17 33 63 60 16 46 105 79 354 47 111 204 238 286 307 310 314 314 314 323 322 316 318 320 320 320 320 317 318 321 320 322 327 328 330 334 334 330 330 332 330 328 331 330 329
37 53 99 124 75 59 48 34 40 59 62 42 34 37 43 56 58 49 50 50 47 52 73 89 80 139 193 255 279 331 353 351 320 344 347 297 313 341 45 70 55 284 23 33 29 327 12 34 79 101 183 172 167 203 224 251 288 296 307 312 312 317 317 314 320 325 323 323 326 329 331 332 330 329 331 330 329 332 332 328 327 327 325 325 328 328 325
42 49 62 81 62 49 25 10 32 71 52 16 9 26 27 29 43 40 26 25 28 34 51 72 86 298 9 317 299 337 355 342 345 1 348 257 299 339 35 80 121 223 28 345 265 231 37 27 57 106 226 253 230 222 235 247 269 281 293 301 305 313 319 319 324 331 329 326 330 332 332 331 326 322 324 324 322 324 326 324 322 323 323 324 324 322 322
36 42 49 61 70 79 32 7 43 70 26 5 16 43 17 15 36 37 347 355 12 8 24 55 105 176 62 27 316 341 25 32 3 358 351 319 325 335 355 61 47 35 44 310 272 42 45 345 9 55 258 281 313 275 268 289 298 292 299 305 307 314 319 319 320 325 322 315 315 316 317 317 315 313 316 318 317 318 320 321 321 323 324 323 322 321 322
33 47 49 55 64 69 73 63 45 32 2 3 23 50 32 20 45 69 353 24 33 345 359 61 98 254 68 64 290 313 24 35 11 313 321 299 265 74 56 40 318 26 25 266 280 43 87 259 343 5 248 255 267 269 282 301 294 294 306 312 314 318 319 315 314 317 313 308 309 311 312 312 311 311 313 316 316 316 318 320 321 321 321 322 323 324 325
29 50 62 80 96 82 70 60 40 35 41 31 31 44 43 13 12 27 47 48 20 294 296 68 36 330 351 66 211 261 345 13 81 131 120 306 308 72 40 304 316 58 236 252 267 65 84 83 328 277 238 235 248 268 287 295 289 297 310 314 316 319 318 313 313 316 316 315 316 318 320 320 318 316 316 318 319 318 317 319 320 321 322 324 327 327 327
69 87 95 100 99 83 58 41 31 28 47 64 38 26 19 358 5 18 35 57 321 286 324 54 42 280 279 272 226 227 287 349 31 84 72 326 324 93 86 325 358 46 236 249 357 57 59 304 275 265 250 245 256 273 286 290 290 302 311 316 319 322 320 318 320 323 324 322 319 318 320 320 318 316 317 319 320 319 319 320 322 323 324 326 328 329 330
89 96 103 103 69 33 21 22 25 32 51 55 39 21 355 357 21 25 326 300 285 23 318 310 313 305 298 295 233 228 262 339 21 76 90 335 354 57 55 20 353 209 233 21 54 62 204 224 226 239 246 253 264 271 277 287 293 299 307 314 318 321 322 323 323 323 323 324 322 321 322 322 321 321 323 324 325 325 325 326 327 327 327 328 329 331 333
103 77 71 73 26 19 17 349 1 48 58 31 52 98 10 342 336 230 292 313 335 3 306 316 6 344 310 314 46 299 295 7 59 79 5 347 23 56 59 270 253 256 353 31 52 256 247 235 228 238 254 271 279 277 280 291 297 298 304 311 318 324 326 327 327 326 326 328 328 329 329 329 327 328 329 329 330 330 327 328 330 331 331 330 329 330 333
80 7 32 37 358 355 17 319 346 43 65 9 176 159 163 239 229 214 228 241 146 25 324 47 109 185 264 270 57 72 307 4 30 6 330 13 22 20 227 237 275 39 42 7 320 299 275 253 241 255 272 278 281 284 287 294 299 300 303 311 321 328 331 331 332 331 329 329 330 332 331 331 330 330 329 329 330 331 330 330 332 333 331 329 328 329 332
93 62 70 83 332 327 82 85 1 46 143 204 200 179 177 192 201 206 220 178 144 165 227 176 122 102 290 295 345 50 41 36 26 311 89 76 25 258 238 224 35 44 44 330 290 266 247 240 239 252 263 269 276 286 291 296 303 307 310 314 322 329 332 333 332 330 329 329 330 331 331 331 330 329 328 328 330 332 333 333 334 334 332 330 328 328 330
96 65 82 112 303 349 56 130 228 199 179 204 205 196 199 239 247 245 237 204 184 173 166 156 117 105 264 308 7 345 1 44 35 280 338 102 218 279 4 40 290 214 167 237 255 248 242 248 251 250 259 272 282 287 291 294 298 303 310 317 322 326 330 332 331 329 330 332 332 331 331 331 331 329 329 329 330 332 334 336 336 336 335 332 330 330 330
106 72 74 130 194 281 86 161 139 86 61 229 226 226 224 288 281 256 216 190 177 157 144 136 64 351 338 16 43 282 300 12 40 274 355 84 105 330 10 8 288 258 200 205 226 232 229 237 244 254 270 280 278 275 281 288 294 302 314 322 324 326 330 331 330 329 331 332 332 330 329 329 329 329 329 329 329 331 334 337 336 336 335 334 332 331 331
80 81 77 101 136 169 179 123 97 51 325 293 270 257 215 220 255 244 199 171 170 188 176 156 125 113 298 343 45 65 328 324 241 317 359 22 342 240 170 278 288 286 249 219 217 223 234 242 255 275 283 279 273 274 277 283 294 306 317 323 324 326 328 328 328 329 331 331 330 327 326 327 327 328 329 329 328 329 331 333 333 333 334 334 333 330 330
60 72 83 86 90 112 154 112 86 343 304 294 280 244 198 206 248 231 184 164 154 65 70 76 77 93 32 1 29 23 298 262 158 86 353 267 201 169 183 238 239 235 233 230 221 228 243 251 261 277 281 276 271 275 281 287 297 308 318 324 327 327 327 327 327 328 329 329 328 326 325 326 326 326 327 327 326 326 327 330 333 334 335 335 335 333 331
44 62 79 85 109 145 159 147 142 201 241 248 243 218 190 196 230 202 175 159 115 60 59 64 46 54 42 22 15 318 270 256 90 77 261 237 183 143 189 237 234 223 229 244 241 235 246 249 242 250 270 276 272 277 287 295 301 310 320 327 327 327 327 328 328 328 329 329 328 327 327 327 327 327 327 328 329 329 330 331 334 336 337 336 336 335 333
58 72 59 16 65 136 140 130 132 176 201 224 227 203 190 216 207 173 160 144 99 80 146 173 93 73 43 277 239 199 348 6 13 282 253 234 196 175 197 222 230 214 214 241 256 256 252 253 254 257 262 270 277 285 292 298 303 313 323 326 324 324 326 327 327 328 328 327 327 328 328 328 329 331 332 332 334 335 332 330 332 334 335 334 335 336 335
Height
815 815 816 816 817 817 817 817 817 816 816 817 816 816 820 825 830 830 827 825 823 826 848 873 877 875 882 885 886 887 884 881 880 882 883 881 878 878 879 881 882 881 883 883 882 880 874 871 871 873 876 880 889 903 909 904 898 890 882 886 890 888 887 878 859 853 850 843 850 863 864 860 865 882 892 890 891 892 888 885 885 884 874 870 880 866 835
816 817 817 818 817 817 818 817 817 817 817 817 816 818 825 831 832 831 828 823 821 829 848 865 873 879 883 881 882 885 884 882 880 880 882 882 881 877 877 883 882 882 889 886 880 879 873 869 876 878 876 884 900 910 910 903 897 889 885 890 889 881 880 876 865 863 859 847 848 856 856 857 868 889 900 897 897 897 892 891 895 890 875 877 890 872 837
817 817 818 818 818 818 819 818 818 819 818 817 818 820 826 830 832 834 832 826 829 843 857 862 867 875 875 875 880 881 881 884 885 883 884 888 888 880 879 886 886 887 890 886 883 884 876 871 879 883 880 886 900 908 907 904 899 897 901 903 894 883 883 880 873 877 882 874 867 862 858 862 874 891 901 899 897 897 893 896 901 893 880 880 885 869 841
818 819 819 819 819 819 819 819 819 818 818 818 818 821 826 829 834 839 840 840 845 860 871 866 863 869 868 870 881 881 876 882 889 886 883 887 890 885 884 888 886 885 885 880 878 881 884 882 880 880 880 883 896 907 907 905 903 902 905 906 898 891 890 883 873 875 880 878 870 865 868 873 875 887 900 900 900 900 897 899 901 896 890 882 873 863 851
819 820 820 820 820 820 820 820 819 819 820 819 818 824 830 833 844 852 848 848 853 861 871 871 867 870 870 871 881 882 878 881 884 883 884 887 889 886 887 889 884 882 883 880 875 877 884 886 881 883 888 888 896 906 906 904 904 904 904 904 899 889 882 884 883 874 871 873 870 870 878 883 883 892 901 900 901 902 901 902 899 895 895 881 863 861 861
820 821 820 821 821 820 820 819 819 819 820 819 820 829 836 838 852 863 855 854 861 863 869 875 874 873 876 882 886 883 880 880 879 881 884 886 887 883 881 887 891 893 892 885 879 877 877 878 879 886 893 893 891 895 899 902 904 903 900 900 901 888 878 888 894 882 878 881 879 878 884 888 894 900 900 899 901 901 900 902 896 893 896 883 864 863 863
821 821 821 822 821 821 821 819 820 820 820 820 819 828 842 845 853 864 861 862 874 878 879 879 874 873 878 882 885 884 880 881 886 891 885 879 884 883 876 882 893 899 899 890 884 884 882 880 884 888 892 894 890 886 889 895 901 901 895 898 905 891 878 892 903 893 885 882 879 881 884 887 897 903 900 898 899 899 899 898 893 890 888 878 868 865 859
823 822 822 822 822 822 822 820 821 821 820 822 821 828 840 841 844 856 860 867 880 884 884 878 868 872 879 878 883 889 883 881 889 896 887 876 881 886 882 886 895 900 901 893 887 890 891 888 890 893 895 896 893 889 889 892 897 897 895 900 902 889 881 896 905 893 879 874 877 881 882 886 895 900 901 899 895 896 896 894 891 888 882 873 869 865 855
824 824 823 823 823 822 822 821 822 822 821 822 825 832 837 837 841 846 848 864 882 880 882 881 869 870 879 879 884 888 884 886 890 890 892 888 885 889 890 891 897 901 900 894 889 893 896 893 893 896 895 895 894 893 896 899 897 895 899 902 899 894 892 896 901 893 876 870 877 882 885 893 897 899 903 900 894 894 894 892 890 887 880 873 868 864 856
826 826 825 825 824 823 824 823 822 824 823 822 826 834 838 838 842 843 842 862 884 884 881 882 871 873 885 888 889 888 887 896 894 883 888 896 893 895 897 895 894 892 888 889 892 897 898 897 898 900 900 901 902 901 903 905 901 899 904 908 911 911 901 894 902 897 877 874 882 881 881 885 885 892 902 899 895 893 888 887 888 885 882 878 871 865 858
829 828 827 827 827 826 826 825 825 825 824 824 826 832 836 836 838 844 844 856 882 891 882 874 871 879 891 893 892 892 891 895 893 884 883 891 896 900 900 897 892 886 886 893 898 901 902 903 904 905 903 904 906 907 907 907 907 907 905 905 917 921 907 902 913 904 884 886 890 876 870 874 879 890 898 896 896 894 887 885 886 881 879 878 872 865 859
831 831 830 830 829 828 828 828 827 827 826 826 827 829 835 835 834 841 844 852 877 890 880 877 885 890 892 894 891 890 889 891 895 895 889 889 896 901 900 898 892 887 892 898 900 902 901 900 902 904 906 910 911 910 909 908 910 914 910 906 910 913 906 909 920 913 896 896 899 887 876 879 890 896 895 893 894 893 887 881 879 879 876 874 873 868 862
834 834 833 833 832 831 831 830 829 830 830 830 829 830 834 835 835 842 848 854 875 887 880 884 900 899 895 896 892 890 895 898 900 903 899 893 895 896 897 896 892 891 896 898 898 896 889 884 890 894 898 903 903 902 906 911 912 914 915 913 909 908 909 911 915 914 905 904 913 909 889 884 895 898 894 894 893 892 890 880 873 877 877 875 874 869 861
837 837 836 835 835 834 833 833 832 832 833 832 831 832 834 835 836 842 846 853 876 897 893 885 892 896 894 894 892 891 895 898 898 899 900 899 896 893 895 897 894 894 896 893 891 888 880 877 880 882 884 886 885 885 895 909 917 917 916 916 913 911 912 910 910 916 917 917 920 913 895 889 897 898 895 897 896 896 898 888 874 873 877 876 874 867 859
840 839 838 837 838 837 836 836 835 835 836 835 833 834 836 837 837 839 844 852 871 893 897 888 887 891 893 895 896 892 888 890 892 893 898 902 898 893 895 897 894 894 895 890 887 886 884 884 885 884 884 887 889 887 886 894 910 920 922 920 917 915 914 911 911 918 924 924 921 916 906 898 899 900 897 897 897 896 898 894 880 872 874 875 871 864 857
843 842 841 840 840 840 839 839 838 838 838 837 836 836 837 839 839 839 845 852 861 878 893 899 899 897 895 898 901 896 890 891 892 890 890 893 893 893 894 895 893 894 893 890 890 889 885 889 895 895 893 896 898 894 888 890 900 913 920 918 916 918 921 918 918 923 927 927 926 925 915 901 899 902 897 894 895 892 893 896 886 872 869 871 868 864 858
846 845 844 843 843 842 842 841 841 841 840 840 839 838 839 842 843 842 846 854 867 886 901 904 902 899 895 895 898 899 898 899 898 892 887 888 894 895 893 892 893 893 891 889 891 891 889 894 899 896 896 904 904 896 895 899 900 905 913 914 913 920 927 926 925 928 930 928 926 924 914 901 897 898 897 895 892 889 894 900 888 871 868 868 866 864 859
849 848 847 847 846 845 845 844 844 844 843 843 842 841 842 844 845 845 848 856 871 893 906 905 901 900 898 896 898 901 902 901 898 895 892 894 898 896 893 894 892 889 889 890 892 893 894 900 906 900 896 904 906 898 898 904 905 909 916 917 918 927 934 934 931 931 931 929 926 918 908 900 896 895 896 894 888 890 903 904 887 874 871 868 865 864 859
852 851 850 850 849 848 848 847 847 846 846 845 844 844 846 848 848 847 851 860 873 890 904 905 902 902 902 902 902 901 902 900 897 894 889 889 895 899 900 900 895 891 893 893 896 903 900 901 916 917 903 900 904 903 904 910 916 920 922 922 927 933 937 937 935 934 931 928 926 919 905 895 895 895 893 893 897 903 905 894 883 880 877 870 865 862 858
855 854 854 853 852 851 851 850 850 849 848 847 846 846 849 852 851 849 852 863 879 896 905 904 902 902 902 901 899 898 899 899 897 896 891 890 897 899 894 892 892 894 895 890 896 909 904 898 913 919 906 901 906 906 908 918 926 928 927 928 934 936 937 938 938 935 931 926 927 925 908 892 893 898 896 898 906 907 897 885 883 883 879 873 867 860 857
858 857 857 856 855 855 853 853 853 851 851 851 848 848 852 855 854 854 853 857 870 889 901 903 903 903 902 901 901 899 898 897 896 897 895 896 900 896 887 889 894 896 896 894 896 905 905 903 910 913 907 907 910 907 911 918 924 931 933 932 936 939 941 945 943 938 937 935 931 923 908 896 899 905 904 902 902 899 893 887 883 879 876 875 869 860 855
861 860 860 859 858 858 856 856 856 854 854 855 851 850 856 860 860 860 859 859 868 886 899 902 903 903 902 902 902 901 900 899 898 899 897 897 900 898 892 895 898 898 901 901 897 900 904 906 907 907 907 909 910 914 922 921 920 931 936 933 935 937 936 941 940 935 935 933 923 913 906 903 905 906 903 900 897 895 893 888 882 877 875 873 869 861 853
864 863 863 862 861 861 859 859 859 857 857 858 855 854 859 864 865 863 862 866 877 892 900 902 902 903 903 903 902 901 901 900 898 899 899 896 897 899 898 897 897 899 902 900 895 896 900 903 906 905 908 913 913 917 925 926 928 938 939 935 936 934 931 935 936 930 927 921 912 910 910 907 905 904 900 897 894 892 891 887 881 876 871 868 866 860 851
867 866 866 865 864 864 863 862 862 861 861 861 859 859 861 865 867 866 865 870 880 889 897 902 903 903 904 904 903 902 902 900 899 899 900 897 895 896 897 898 898 898 900 899 899 901 901 906 911 908 907 915 919 916 918 926 934 941 939 936 936 934 932 935 934 932 930 918 907 909 911 907 904 901 897 895 892 889 888 884 878 872 867 863 860 856 849
870 869 869 867 867 866 865 865 865 864 865 865 864 863 864 867 868 867 866 871 877 882 891 901 905 906 906 905 904 903 902 901 900 899 898 899 898 895 895 897 898 897 898 899 901 902 901 905 911 909 907 915 921 919 921 927 933 936 937 939 939 935 934 936 934 933 933 922 909 906 906 904 903 899 894 892 888 884 882 879 874 869 863 859 854 850 846
873 872 872 871 870 869 868 868 868 867 867 867 867 866 866 867 870 869 868 871 876 883 893 902 906 906 906 905 904 904 903 901 901 900 899 899 899 897 897 898 898 898 900 901 902 904 904 906 909 909 910 916 920 922 925 927 930 934 937 937 937 936 935 936 933 932 929 920 911 905 899 894 894 894 891 889 887 882 878 875 871 866 860 855 852 847 843
876 875 875 874 873 872 872 871 870 869 870 869 868 869 869 869 871 872 871 872 874 881 891 902 906 907 906 906 905 905 904 902 901 901 900 899 899 899 898 899 899 900 901 902 904 905 906 906 909 912 916 920 923 928 931 931 931 936 937 935 935 937 936 934 934 934 929 922 916 913 907 898 893 893 892 889 886 884 878 873 869 865 860 855 851 847 843
879 878 877 876 876 875 875 874 873 872 872 871 871 871 871 872 873 873 873 873 872 877 888 900 905 906 905 905 906 905 904 904 903 901 901 901 900 900 900 900 901 902 903 903 903 904 905 906 911 919 921 920 922 929 934 934 933 935 937 935 936 937 936 934 935 934 929 921 918 919 916 907 898 895 894 890 887 884 880 875 871 866 861 858 853 847 843
881 880 879 878 877 876 876 875 875 874 874 874 874 873 872 875 877 876 875 875 874 878 890 899 903 905 905 905 907 907 905 904 904 903 903 902 902 902 902 902 903 905 906 906 904 906 909 912 916 920 919 916 919 926 934 938 936 935 935 935 935 936 936 935 934 932 926 920 918 918 916 909 901 897 895 891 887 885 880 875 870 865 861 857 852 846 842
884 882 881 880 878 877 876 875 875 875 875 874 875 874 875 878 881 880 880 881 879 881 888 895 899 905 908 908 907 907 906 906 906 905 904 904 904 904 904 904 905 906 906 906 906 908 913 917 918 919 918 918 921 928 939 945 941 934 932 934 934 934 934 933 932 930 925 919 916 915 913 908 901 897 893 889 886 883 878 873 869 864 859 855 850 845 840
886 885 883 882 880 879 877 876 875 875 876 875 876 877 879 882 884 883 883 883 881 882 888 895 901 907 909 908 908 908 907 907 907 906 906 906 906 906 906 906 907 907 906 907 910 913 916 917 917 918 920 921 922 928 936 941 938 933 933 934 933 933 932 930 929 927 924 919 915 913 910 905 900 896 891 886 883 881 877 871 867 863 858 853 849 844 839
889 888 887 885 884 882 880 879 878 877 876 877 878 881 885 886 886 885 885 884 884 885 887 893 900 905 907 907 909 909 908 907 907 906 907 907 907 907 907 907 907 908 908 910 912 915 917 918 919 921 922 923 925 930 933 934 934 934 933 932 932 932 930 927 925 923 920 918 916 913 908 903 900 897 892 886 882 880 877 871 866 862 857 852 846 840 836
891 891 889 887 887 886 884 884 882 880 879 881 882 885 888 888 887 886 886 885 886 887 888 892 899 904 906 907 909 909 908 908 908 908 907 908 908 908 908 908 909 909 909 911 914 916 919 921 921 921 924 927 928 929 931 932 932 932 931 931 931 930 928 926 924 921 918 916 916 914 908 901 898 895 891 886 882 879 875 869 864 859 855 849 843 837 831
893 893 892 890 890 889 887 887 886 884 884 885 886 888 889 888 888 888 887 886 888 889 893 898 902 902 903 905 908 910 909 909 910 911 909 908 909 909 908 910 911 910 910 913 916 918 920 922 921 921 926 931 931 929 929 930 930 930 930 931 929 926 925 924 921 919 917 914 912 910 905 899 894 891 887 884 880 876 871 866 860 855 850 846 841 836 830
894 894 893 893 892 891 891 890 889 887 888 889 890 893 892 891 891 889 887 888 889 891 899 908 909 905 904 903 904 908 911 912 914 915 913 910 910 911 911 910 909 911 913 915 917 918 921 923 922 922 927 931 930 930 931 931 929 930 930 928 926 925 923 920 917 915 914 911 907 904 900 895 891 887 883 879 875 871 867 863 858 853 849 844 840 836 830
895 895 895 895 894 893 893 892 891 891 892 892 894 895 894 893 894 893 891 891 891 894 903 914 919 919 917 911 909 912 914 913 915 918 916 912 911 913 913 909 909 914 919 918 917 919 922 923 922 923 928 930 928 929 931 930 928 929 929 926 926 925 922 919 917 913 910 908 905 900 895 890 886 881 877 874 872 869 866 862 858 854 850 846 842 837 832
895 895 895 895 894 894 894 894 894 895 895 895 896 896 895 895 895 894 893 895 897 901 907 913 920 929 931 925 922 920 916 915 918 918 915 914 914 915 915 912 911 916 919 917 917 920 923 924 922 921 923 927 927 927 929 929 927 928 927 924 923 923 921 919 917 913 909 905 901 896 893 888 883 879 876 873 871 869 867 864 860 856 852 847 843 839 833
896 896 896 895 895 896 896 896 897 897 896 897 896 895 896 897 896 897 902 905 905 910 916 918 924 934 936 929 925 921 918 921 923 919 916 918 916 914 915 915 915 918 917 916 921 924 923 925 930 928 924 926 928 926 926 927 926 926 926 924 922 922 920 917 915 914 911 907 902 899 896 893 887 883 880 876 872 870 868 865 861 857 852 848 843 839 833
896 896 896 895 896 898 898 898 898 898 898 898 896 896 899 901 899 902 912 916 914 917 923 925 930 936 935 929 927 925 924 925 924 921 920 920 915 913 916 917 917 919 916 914 920 922 916 920 932 932 925 925 928 925 924 926 925 924 923 923 921 920 919 917 916 915 914 911 907 904 902 898 893 888 883 879 875 870 867 864 860 856 851 847 842 838 833
897 897 897 897 899 899 899 899 899 898 898 898 897 899 903 906 908 914 918 917 917 924 929 930 934 939 937 933 931 930 927 926 925 925 925 923 920 921 921 918 919 920 914 912 920 922 915 918 929 930 922 922 926 924 923 924 924 922 922 921 920 919 918 917 915 914 913 911 908 905 902 899 895 889 884 881 877 871 866 863 859 854 850 846 841 836 832
898 898 898 899 900 900 900 901 900 899 900 900 901 905 910 913 921 929 925 915 917 929 936 936 935 935 936 936 935 931 928 928 930 930 929 926 925 923 920 920 924 921 912 913 924 925 918 918 924 924 921 922 924 923 923 924 923 921 920 920 918 918 917 916 914 913 911 908 906 903 900 897 893 889 884 881 877 872 867 863 857 851 846 843 839 835 830
900 899 900 902 902 901 901 901 900 901 902 900 902 913 923 923 924 927 925 921 926 934 937 936 935 934 934 936 935 932 930 930 931 930 928 925 926 925 924 926 925 915 910 919 928 925 917 915 916 918 921 923 922 922 923 922 921 920 919 917 917 916 915 914 912 910 908 906 904 902 899 895 892 888 883 879 876 872 867 862 857 850 844 839 836 832 828
901 902 902 902 902 902 902 902 903 906 909 907 905 910 917 922 927 930 929 932 938 940 936 936 937 935 933 934 934 933 932 931 931 932 930 927 928 929 926 924 920 916 919 928 927 917 911 909 909 914 921 922 920 921 922 921 920 919 918 916 915 914 913 912 910 908 906 905 902 900 897 894 890 886 881 877 874 869 864 859 855 850 843 836 832 829 825
902 903 902 902 904 904 901 902 905 907 909 913 914 911 910 916 926 929 927 929 935 938 938 940 939 935 933 935 935 933 932 932 931 931 930 930 933 930 921 915 918 922 925 925 923 920 918 916 914 918 922 921 919 920 921 919 918 918 916 914 914 913 911 910 908 906 903 901 899 897 894 890 887 883 878 873 870 867 862 857 852 848 842 836 830 826 823
902 903 902 902 905 905 903 904 909 911 912 918 922 918 915 917 922 925 928 933 938 939 939 942 941 937 935 936 935 934 936 935 930 929 932 933 930 926 921 921 926 929 926 922 920 918 915 914 917 919 920 919 919 919 919 918 917 916 915 913 912 910 909 908 906 903 901 899 896 894 891 888 885 881 876 871 868 864 860 856 852 847 842 837 830 824 821
902 907 906 901 905 912 911 908 909 913 919 925 927 924 923 924 927 931 937 941 941 938 939 942 942 938 936 935 934 936 938 936 931 933 938 934 923 922 928 930 927 923 920 915 909 903 902 909 917 920 918 917 918 917 917 917 916 914 913 912 910 908 907 906 903 902 900 898 895 892 890 886 883 879 875 870 866 862 858 855 852 848 843 837 832 826 820
904 911 909 902 906 915 916 914 917 924 930 934 936 936 937 937 938 939 941 941 940 940 942 943 942 939 938 939 936 935 939 940 934 933 938 933 925 927 933 929 922 920 916 905 897 899 908 915 918 916 916 917 917 916 915 915 913 912 912 911 908 907 906 904 902 901 899 896 894 891 888 885 881 877 873 868 864 860 857 854 851 847 843 838 832 826 820
906 909 906 904 910 914 916 922 932 938 940 942 944 945 945 943 939 938 939 941 942 941 939 940 940 938 939 941 939 936 939 939 932 932 938 936 927 922 921 916 914 921 921 909 901 906 913 915 915 915 916 916 915 914 914 913 911 911 910 908 907 905 904 902 901 899 897 895 893 890 886 884 880 876 872 867 862 858 856 853 849 846 843 838 832 826 820
908 909 910 916 923 928 932 936 937 934 937 943 946 945 944 941 937 935 938 941 941 940 940 941 939 936 937 941 941 937 937 937 932 933 937 933 923 921 922 913 905 907 911 912 912 913 913 914 915 915 914 914 913 913 912 911 909 909 908 907 905 904 902 900 899 898 895 894 892 889 886 883 879 875 871 867 861 856 854 851 849 845 841 838 833 827 820
910 912 917 921 923 927 936 939 930 925 932 939 939 939 940 938 934 934 938 940 940 941 940 940 939 938 941 942 936 930 934 940 940 934 927 922 925 931 929 915 902 900 905 911 915 913 912 913 914 913 912 913 912 910 909 908 907 907 907 905 904 902 901 899 898 896 894 892 890 887 885 882 878 874 871 867 862 857 852 848 846 843 839 835 832 826 820
913 915 921 925 922 922 928 928 921 919 925 928 928 932 936 934 931 933 937 939 939 938 937 938 941 941 938 933 928 926 933 943 945 937 928 928 935 935 920 904 901 905 908 910 912 913 912 912 913 911 910 910 909 907 907 906 905 904 904 903 902 901 899 897 896 894 892 890 888 885 882 879 876 873 869 865 861 856 850 844 841 839 835 831 828 824 819
915 916 923 930 931 930 929 926 923 924 927 928 929 932 933 931 931 935 937 937 936 935 936 941 943 938 930 929 933 936 936 937 936 930 925 926 931 926 911 902 905 909 909 909 911 912 911 911 910 909 908 907 906 905 904 903 902 902 902 901 900 899 898 896 894 892 890 888 885 883 880 877 874 870 866 862 858 854 849 843 838 834 831 828 825 821 817